Retour au catalogue

FENGYUN 1C DEB

ActifPO
NORAD 31202·DEBRIS·🇨🇳 China

Lancé May 10, 1999 depuis Taiyuan Satellite Launch Center

Loading…

Prochains Passages (prochaines 24 heures)

TLE

FraisSource: Space-Track

Époque: Sep 14, 2026, 06:39 UTC

1 31202U 99025BKG 26257.27747895  .00006776  00000-0  70545-3 0  9994
2 31202  96.5539 259.5864 0062088 327.9618  43.9928 14.88638101 31702

Suivez FENGYUN 1C DEB en temps réel avec AllMySat

Download on the App Store